Regional Weather Roundup
Issued by NWS Wilmington, NC

Home | Current Version | Previous Version | Text Only | Print | Product List | Glossary On
Versions: 1 2 3 4 5 6 7 8 9 10 11 12 13 14 15 16 17 18 19 20 21 22 23 24 25 26 27 28 29 30 31 32 33 34 35 36 37 38 39 40 41 42 43 44 45 46 47 48 49 50
000
ASUS42 KILM 202213
RWRILM
RWRILM
REGIONAL HOURLY WEATHER ROUNDUP
NATIONAL WEATHER SERVICE WILMINGTON NC
500 PM EST FRI JAN 20 2017

NOTE: "FAIR" INDICATES FEW OR NO CLOUDS BELOW 12,000 FEET WITH NO
SIGNIFICANT WEATHER AND/OR OBSTRUCTIONS TO VISIBILITY.

...............WFO WILMINGTON COUNTY WARNING AREA...............

......COASTAL NC AND SC COUNTIES......

CITY           SKY/WX    TMP DP  RH WIND       PRES   REMARKS
WILMINGTON     PTCLDY    70  61  73 S9        29.83R
N MYRTLE BEACH PTCLDY    62  59  90 SW10      29.84R
MYRTLE BEACH   PTCLDY    70  57  64 S8        29.85

......INLAND NC AND SC COUNTIES.......

CITY           SKY/WX    TMP DP  RH WIND       PRES   REMARKS
LUMBERTON      CLOUDY    70  60  70 NW5       29.83S
ELIZABETHTOWN  CLEAR     71  58  65 NW6       29.83S
WHITEVILLE     PTCLDY    72  59  64 CALM      29.83R
FLORENCE       PTCLDY    73  59  61 CALM      29.82S
DARLINGTON     PTCLDY    71  59  65 CALM      29.83S
KINGSTREE      FAIR      72  57  60 CALM      29.83S
HARTSVILLE     MOCLDY    68  59  73 CALM      29.82F
BENNETTSVILLE  FAIR      72  61  68 CALM      29.82F
CONWAY         FAIR      72  59  64 CALM      29.83S
GEORGETOWN     FAIR      72  59  64 W5        29.85R
MARION         FAIR      70  57  64 CALM      29.83S

....................REST OF NORTH CAROLINA......................

.........EASTERN NC.........

CITY           SKY/WX    TMP DP  RH WIND       PRES   REMARKS
CAPE HATTERAS  CLOUDY    63  60  90 SW7       29.82F FOG
JACKSONVILLE   MOCLDY    68  61  78 CALM      29.84R
MOREHEAD CITY  MOCLDY    65  60  84 SW6       29.84R
KENANSVILLE    CLOUDY    70  59  68 NW5       29.84R
NEW BERN       CLOUDY    69  59  70 NW3       29.85R
ELIZABETH CITY CLOUDY    50  48  93 E6        29.87S

.........CENTRAL NC.........

CITY           SKY/WX    TMP DP  RH WIND       PRES   REMARKS
RALEIGH DURHAM MOCLDY    59  55  87 W6        29.86R
ROCKY MOUNT    PTCLDY    54  53  97 CALM      29.86R
ROANOKE RAPIDS NOT AVBL
FAYETTEVILLE   PTCLDY    70  59  68 N3        29.83S
HOFFMAN        CLOUDY    68  58  71 W3        29.82F

.........WESTERN NC.........

CITY           SKY/WX    TMP DP  RH WIND       PRES   REMARKS
CHARLOTTE      MOCLDY    59  54  83 N3        29.84S
GREENSBORO     CLOUDY    55  53  93 W5        29.85R
HICKORY        NOT AVBL
BOONE          NOT AVBL
ASHEVILLE      NOT AVBL

.....................REST OF SOUTH CAROLINA.....................

.........EASTERN SC.........

CITY           SKY/WX    TMP DP  RH WIND       PRES   REMARKS
CHARLESTON     PTCLDY    73  59  61 W10       29.86R
BEAUFORT MCAS  PTCLDY    74  61  63 W3        29.87R
HILTON HEAD    PTCLDY    68  63  83 S7        29.88R

.........CENTRAL SC.........

CITY           SKY/WX    TMP DP  RH WIND       PRES   REMARKS
COLUMBIA       PTCLDY    76  54  46 SW7       29.81R
ORANGEBURG     PTCLDY    74  58  57 SW8       29.83F
SUMTER SHAW    PTCLDY    75  54  47 W8        29.79S

.........WESTERN SC.........

CITY           SKY/WX    TMP DP  RH WIND       PRES   REMARKS
GREENVILLE     NOT AVBL
ROCK HILL      CLEAR     64  57  78 N7        29.83R
ANDERSON       CLEAR     71  51  49 SW6       29.81R
CLEMSON        NOT AVBL
GREENWOOD      PTCLDY    72  50  45 SW6       29.83R


...................COASTAL AND OFFSHORE REPORTS..................

................LOCAL PIERS AND NC RESERVE................


STATION/POSITION TIME  SKY/WX   TEMP    WIND        PRES    VSBY
                                AIR SEA DIR/SP/G
                 (UTC)          (F)     (DEG/KT/KT) (MB)    (MI)
JOHNY MRCER PIER 2148            59 56  210/ 11/ 12 1009.0R
NC RESRV MASNBRO 2045            72     250/  7     1009.0
OCEAN CREST PIER NOT AVBL
SPRINGMAID  PIER NOT AVBL


................COASTAL AND OFFSHORE BUOYS................


STATION/POSITION TIME  SKY/WX   TEMP    WIND        PRES    VSBY
                                AIR SEA DIR/SP/G
                 (UTC)          (F)     (DEG/KT/KT) (MB)    (MI)
DIMNDSHOAL 41025 2150            72 76  230/ 16/ 21 1009.7R
WVE H/P(F/S)=  6/13 SWL H/P/D(F/S/D)=  5/ 80/13

CAPE LOOKOUT     2100            66     230/  6/  8 1010.0F
ONSLOW BAY 41036 NOT AVBL
ONSLOW BAY 41064 2108            66 66  230/  8/ 12 1010.5F
ONSLOW BAY 41159 2143               65                N/A
WVE H/P(F/S)=  4/12 SWL H/P/D(F/S/D)=  3/100/12

MASNBO INL 41110 2159               53                N/A
WVE H/P(F/S)=  2/11 SWL H/P/D(F/S/D)=  2/100/11

WILM HARBR 41108 2156               57                N/A
WVE H/P(F/S)=  3/13 SWL H/P/D(F/S/D)=  2/120/13

27SE WRITB 41037 2108            70 71  230/ 10/ 14 1010.0F
FRYING PAN 41013 2150            71 71  210/ 16/ 19 1010.3S
WVE H/P(F/S)=  3/12 SWL H/P/D(F/S/D)=  2/ 90/12

SUNST NRSH 41024 2108            60 56  240/  6/  8 1010.1R
CAPRS NRSH 41029 2108            60 56  220/ 12/ 16 1010.6S
EDISTO     41004 2050            69 71  240/ 16/ 17 1010.5
WVE H/P(F/S)=  3/ 4 SWL H/P/D(F/S/D)=  2/110/ 7



..........OFFSHORE BUOYS BEYOND 100 NM OFFSHORE...........
.....IN A TRIANGLE---HAT TO BERMUDA TO BAHAMAS TO HAT.....


STATION/POSITION TIME  SKY/WX   TEMP    WIND        PRES    VSBY
                                AIR SEA DIR/SP/G
                 (UTC)          (F)     (DEG/KT/KT) (MB)    (MI)
150E HAT   41001 NOT AVBL
W BERMUDA  41048 2150            66 70   20/  2/  4 1013.7F
WVE H/P(F/S)=  7/11 SWL H/P/D(F/S/D)=  7/ 30/11

ATLANTIC S 41049 2150            70 74  320/ 12/ 16 1013.4R
WVE H/P(F/S)=  8/11 SWL H/P/D(F/S/D)=  7/320/11

E BAHAMAS  41046 2150            75 78   70/  2/  4 1015.4R
WVE H/P(F/S)=  4/11 SWL H/P/D(F/S/D)=  3/11

NE BAHAMAS 41047 2150            72 75  290/  6/  8 1015.5R
WVE H/P(F/S)=  6/11 SWL H/P/D(F/S/D)=  5/ 30/11

120E CANVRL41010 NOT AVBL

END



USA.gov is the U.S. government's official web portal to all federal, state and local government web resources and services.